EW3451 Weather Reports


Display with metric or nautical units.
time (UTC)temp
F
wind
direction
speed
MPH
gust
MPH
rain 1hr
in
rain 24hr
in
rain mn
in
humidity
%
barometer
mb
20260508120903 37 131 0.0 1.0 0.00 0.00 0.00 94 1016.9
20260508115813 35 192 0.0 1.0 0.00 0.00 0.00 98 1016.8
20260508115403 34 192 0.0 0.0 0.00 0.00 0.00 98 1016.9
20260508114839 34 192 0.0 1.0 0.00 0.00 0.00 98 1016.8
20260508114333 33 192 0.0 3.0 0.00 0.00 0.00 98 1016.7
20260508113825 33 192 1.0 3.0 0.00 0.00 0.00 98 1016.6
20260508112854 32 192 0.0 4.0 0.00 0.00 0.00 98 1016.5
20260508112347 32 192 1.0 4.0 0.00 0.00 0.00 98 1016.5
20260508110849 31 175 0.0 0.0 0.00 0.00 0.00 97 1016.4
20260508110326 31 175 0.0 3.0 0.00 0.00 0.00 97 1016.3
20260508105335 30 243 0.0 1.0 0.00 0.00 0.00 97 1016.3
20260508104828 30 243 0.0 1.0 0.00 0.00 0.00 97 1016.2
20260508104401 30 242 0.0 0.0 0.00 0.00 0.00 96 1016.2
20260508103855 30 242 0.0 2.0 0.00 0.00 0.00 96 1016.1
20260508103348 30 242 0.0 3.0 0.00 0.00 0.00 96 1016.1
20260508102826 30 242 1.0 3.0 0.00 0.00 0.00 96 1016.1
20260508101833 31 242 0.0 1.0 0.00 0.00 0.00 96 1016.0
20260508101407 31 242 0.0 1.0 0.00 0.00 0.00 96 1016.0
20260508100857 31 242 0.0 1.0 0.00 0.00 0.00 97 1016.0
20260508100351 31 242 0.0 3.0 0.00 0.00 0.00 97 1015.9
20260508095843 31 242 0.0 1.0 0.00 0.00 0.00 96 1015.9
20260508095337 31 242 0.0 2.0 0.00 0.01 0.00 96 1015.9
20260508094814 31 242 0.0 2.0 0.00 0.01 0.00 96 1015.8
20260508094404 31 242 1.0 3.0 0.00 0.01 0.00 96 1015.8
20260508093840 31 242 1.0 3.0 0.00 0.01 0.00 95 1015.7
20260508093333 31 261 0.0 0.0 0.00 0.01 0.00 95 1015.7
20260508092827 31 261 0.0 0.0 0.00 0.01 0.00 95 1015.7
20260508092400 31 261 0.0 0.0 0.00 0.01 0.00 95 1015.7
20260508091850 31 261 0.0 0.0 0.00 0.01 0.00 95 1015.6
20260508091343 31 261 0.0 0.0 0.00 0.01 0.00 95 1015.6
20260508085831 31 261 0.0 0.0 0.00 0.01 0.00 95 1015.4
20260508085404 31 261 0.0 2.0 0.00 0.01 0.00 95 1015.4
20260508084333 31 327 0.0 1.0 0.00 0.01 0.00 94 1015.3
20260508083826 31 327 0.0 0.0 0.00 0.01 0.00 94 1015.4
20260508083319 32 327 0.0 0.0 0.00 0.01 0.00 94 1015.3
20260508082812 32 327 0.0 0.0 0.00 0.01 0.00 94 1015.2
20260508082406 32 327 0.0 0.0 0.00 0.01 0.00 94 1015.3
20260508081858 32 327 0.0 0.0 0.00 0.01 0.00 94 1015.3
20260508080848 32 327 0.0 0.0 0.00 0.01 0.00 94 1015.3
20260508080342 32 327 0.0 0.0 0.00 0.01 0.00 93 1015.3
20260508075835 32 327 0.0 0.0 0.00 0.01 0.00 93 1015.4
20260508075329 33 327 0.0 0.0 0.00 0.01 0.00 94 1015.4
20260508074901 33 327 0.0 0.0 0.00 0.01 0.00 94 1015.3
20260508074354 33 327 0.0 0.0 0.00 0.01 0.00 94 1015.3
20260508073346 33 327 0.0 0.0 0.00 0.01 0.00 93 1015.2
20260508072321 33 327 0.0 0.0 0.00 0.01 0.00 93 1015.2
20260508071854 33 327 0.0 0.0 0.00 0.01 0.00 93 1015.2
20260508071347 33 327 0.0 0.0 0.00 0.01 0.00 92 1015.2
20260508070837 33 327 0.0 0.0 0.00 0.01 0.00 92 1015.2
20260508070330 33 327 0.0 1.0 0.00 0.01 0.00 92 1015.2
20260508065903 33 327 0.0 2.0 0.00 0.01 0.00 92 1015.2
20260508065357 34 327 0.0 2.0 0.00 0.01 0.00 91 1015.2
20260508064849 34 327 0.0 0.0 0.00 0.01 0.00 91 1015.2
20260508064326 34 327 0.0 1.0 0.00 0.01 0.00 91 1015.3
20260508063819 34 327 0.0 0.0 0.00 0.01 0.00 91 1015.3
20260508063313 34 327 0.0 0.0 0.00 0.01 0.00 90 1015.3
20260508062906 34 327 0.0 1.0 0.00 0.01 0.00 89 1015.3
20260508062359 35 327 0.0 1.0 0.00 0.01 0.00 89 1015.5
20260508061853 35 327 0.0 0.0 0.00 0.01 0.00 89 1015.4
20260508061345 35 327 0.0 0.0 0.00 0.01 0.00 88 1015.4
20260508060821 35 327 0.0 0.0 0.00 0.01 0.00 87 1015.4
20260508060314 36 327 0.0 0.0 0.00 0.01 0.00 86 1015.4
20260508055828 36 327 0.0 0.0 0.00 0.01 0.00 86 1015.5
20260508055320 37 327 0.0 1.0 0.00 0.02 0.00 85 1015.5
20260508054328 37 327 0.0 1.0 0.00 0.02 0.00 84 1015.4
20260508053821 38 327 0.0 3.0 0.00 0.02 0.00 83 1015.3
20260508053314 38 327 0.0 3.0 0.00 0.02 0.00 81 1015.3
20260508052831 38 5 0.0 1.0 0.00 0.02 0.00 81 1015.3
20260508052324 39 5 0.0 1.0 0.00 0.02 0.00 79 1015.2
20260508051332 39 5 0.0 2.0 0.00 0.02 0.00 79 1015.2
20260508045815 39 349 1.0 3.0 0.00 0.02 0.00 79 1015.1
20260508045328 39 10 1.0 2.0 0.00 0.03 0.00 79 1014.9
20260508044820 40 355 0.0 2.0 0.00 0.03 0.00 79 1015.0
20260508044413 40 355 0.0 2.0 0.00 0.03 0.00 79 1015.0
20260508043820 40 355 0.0 3.0 0.00 0.03 0.00 79 1014.9
20260508042812 40 309 0.0 3.0 0.00 0.03 0.00 79 1015.0
20260508042317 41 309 0.0 3.0 0.00 0.03 0.00 78 1014.9
20260508041813 41 359 0.0 3.0 0.00 0.03 0.00 77 1014.9
20260508041326 41 18 0.0 3.0 0.00 0.03 0.00 76 1015.0
20260508040818 41 18 0.0 0.0 0.00 0.03 0.00 76 1014.9
20260508040312 41 18 0.0 3.0 0.00 0.03 0.00 76 1014.9
20260508035845 41 11 1.0 3.0 0.00 0.03 0.00 76 1014.8
20260508035338 41 360 0.0 2.0 0.00 0.04 0.03 77 1014.8
20260508034832 42 345 0.0 2.0 0.00 0.04 0.03 78 1014.7
20260508034324 42 12 1.0 3.0 0.00 0.04 0.03 78 1014.6
20260508033351 42 65 1.0 3.0 0.00 0.04 0.03 78 1014.6
20260508032829 42 280 1.0 3.0 0.00 0.04 0.03 78 1014.7
20260508032322 42 238 0.0 5.0 0.00 0.04 0.03 78 1014.8
20260508031815 43 318 0.0 5.0 0.00 0.04 0.03 78 1014.7
20260508030831 43 224 1.0 4.0 0.00 0.04 0.03 78 1014.6
20260508025313 43 37 1.0 4.0 0.00 0.08 0.03 78 1014.4
20260508024342 43 251 1.0 3.0 0.00 0.08 0.03 78 1014.2
20260508023818 43 311 0.0 4.0 0.00 0.08 0.03 78 1014.2
20260508023351 44 311 0.0 4.0 0.00 0.08 0.03 78 1014.3
20260508022400 44 226 1.0 5.0 0.00 0.08 0.03 77 1014.2
20260508021852 44 296 1.0 5.0 0.00 0.08 0.03 77 1014.0
20260508021345 44 32 1.0 5.0 0.00 0.08 0.03 77 1014.0
20260508020837 44 309 1.0 3.0 0.00 0.08 0.03 77 1013.9
20260508020313 44 243 0.0 3.0 0.00 0.08 0.03 77 1013.8
20260508015903 44 243 0.0 3.0 0.00 0.08 0.03 77 1013.7
20260508015340 44 295 1.0 3.0 0.00 0.12 0.03 78 1013.7
20260508014834 45 244 0.0 2.0 0.00 0.12 0.03 77 1013.7
20260508014326 45 244 0.0 3.0 0.00 0.12 0.03 77 1013.6
20260508013355 45 252 0.0 2.0 0.00 0.12 0.03 77 1013.5
20260508012847 45 309 1.0 2.0 0.00 0.12 0.03 77 1013.5
20260508012341 46 326 0.0 3.0 0.00 0.12 0.03 76 1013.4
20260508011818 46 352 0.0 3.0 0.00 0.12 0.03 76 1013.3
20260508011352 46 258 1.0 5.0 0.00 0.12 0.03 76 1013.2
20260508010844 46 311 1.0 5.0 0.00 0.12 0.03 76 1013.1
20260508010337 46 276 0.0 6.0 0.00 0.12 0.03 75 1013.1
20260508005830 46 266 1.0 6.0 0.00 0.12 0.03 75 1013.0
20260508004839 47 8 1.0 5.0 0.00 0.13 0.03 74 1013.0
20260508004332 47 29 0.0 3.0 0.00 0.13 0.03 72 1013.0
20260508003905 47 29 1.0 3.0 0.00 0.13 0.03 72 1012.9
20260508002858 48 72 0.0 3.0 0.00 0.13 0.03 71 1013.0
20260508002350 49 30 0.0 6.0 0.00 0.13 0.03 70 1012.8
20260508001320 49 7 2.0 10.0 0.00 0.13 0.03 68 1012.7
20260508000346 49 327 3.0 8.0 0.00 0.13 0.03 68 1012.5
20260507235840 50 229 4.0 8.0 0.00 0.13 0.03 68 1012.5
20260507235317 50 49 2.0 7.0 0.00 0.19 0.03 69 1012.5
20260507234906 50 264 2.0 6.0 0.00 0.19 0.03 68 1012.6
20260507234343 50 32 0.0 7.0 0.00 0.19 0.03 69 1012.5
20260507233837 51 359 3.0 9.0 0.00 0.19 0.03 68 1012.5
20260507233329 51 283 4.0 12.0 0.00 0.19 0.03 68 1012.4
20260507232902 51 110 2.0 7.0 0.00 0.19 0.03 67 1012.5
20260507232355 51 226 2.0 7.0 0.00 0.19 0.03 66 1012.5
20260507231848 52 306 4.0 8.0 0.00 0.19 0.03 66 1012.4
20260507231327 52 335 4.0 10.0 0.00 0.19 0.03 66 1012.4
20260507230913 53 222 6.0 10.0 0.00 0.19 0.03 64 1012.4
20260507230401 53 23 1.0 9.0 0.00 0.19 0.03 67 1012.3
20260507225839 53 229 3.0 10.0 0.00 0.19 0.03 67 1012.2
20260507225332 53 360 4.0 12.0 0.00 0.19 0.03 67 1012.3
20260507224904 52 34 4.0 12.0 0.00 0.19 0.03 70 1012.3
20260507223832 53 160 2.0 6.0 0.00 0.19 0.03 69 1012.1
20260507223404 53 1 1.0 9.0 0.00 0.19 0.03 69 1012.1
20260507222858 53 355 3.0 14.0 0.00 0.19 0.03 66 1012.0
20260507222335 54 348 5.0 14.0 0.00 0.19 0.03 65 1012.0
20260507221343 54 243 5.0 11.0 0.00 0.19 0.03 66 1011.9
20260507220352 54 291 3.0 8.0 0.00 0.19 0.03 67 1011.9
20260507215845 54 297 3.0 8.0 0.00 0.19 0.03 67 1011.7
20260507215338 54 1 3.0 6.0 0.00 0.24 0.03 69 1011.6
20260507214831 53 213 2.0 8.0 0.00 0.24 0.03 71 1011.7
20260507214405 53 198 4.0 8.0 0.00 0.24 0.03 68 1011.7
20260507213857 53 298 3.0 8.0 0.00 0.24 0.03 69 1011.7
20260507213334 53 303 1.0 9.0 0.00 0.24 0.03 69 1011.6
20260507212341 54 36 4.0 10.0 0.00 0.24 0.03 68 1011.6
20260507211834 54 338 3.0 14.0 0.00 0.24 0.03 67 1011.4
20260507211327 54 354 6.0 14.0 0.00 0.24 0.03 68 1011.3
20260507210335 55 52 3.0 10.0 0.00 0.24 0.03 70 1011.3
20260507205828 54 299 5.0 10.0 0.00 0.24 0.03 68 1011.3
20260507204839 53 271 3.0 8.0 0.00 0.25 0.03 71 1011.3
20260507204333 53 52 2.0 7.0 0.00 0.25 0.03 71 1011.4
20260507203826 53 328 3.0 7.0 0.00 0.25 0.03 72 1011.4
20260507202834 53 20 4.0 9.0 0.00 0.25 0.03 70 1011.4
20260507202328 54 346 3.0 12.0 0.00 0.25 0.03 70 1011.4
20260507201351 54 248 8.0 17.0 0.00 0.25 0.03 70 1011.3
20260507200844 54 234 5.0 11.0 0.00 0.25 0.03 73 1011.4
20260507200338 54 224 3.0 13.0 0.00 0.25 0.03 75 1011.6
20260507195814 53 233 6.0 13.0 0.00 0.25 0.03 74 1011.7
20260507195346 52 293 3.0 12.0 0.00 0.25 0.03 76 1011.8
20260507194838 52 230 6.0 12.0 0.00 0.25 0.03 73 1011.8
20260507194331 52 304 2.0 9.0 0.00 0.25 0.03 75 1011.8
20260507193904 52 309 3.0 11.0 0.00 0.25 0.03 75 1011.8
20260507193357 51 243 5.0 11.0 0.00 0.25 0.03 75 1011.7
20260507192850 51 21 4.0 11.0 0.00 0.25 0.03 75 1011.8
20260507192328 51 252 3.0 12.0 0.00 0.25 0.03 77 1011.8
20260507191336 51 294 3.0 11.0 0.00 0.25 0.03 76 1012.1
20260507190829 51 331 4.0 11.0 0.00 0.25 0.03 75 1012.1
20260507190400 51 317 3.0 8.0 0.00 0.25 0.03 75 1012.1
20260507185853 52 13 5.0 9.0 0.00 0.25 0.03 74 1012.1
20260507185345 52 249 2.0 9.0 0.00 0.25 0.03 74 1012.0
20260507184839 52 316 4.0 11.0 0.00 0.25 0.03 73 1012.1
20260507184315 53 359 5.0 12.0 0.00 0.25 0.03 72 1012.4
20260507183324 53 320 4.0 9.0 0.00 0.25 0.03 75 1012.3
20260507182331 52 359 4.0 10.0 0.00 0.25 0.03 73 1012.2
20260507181905 52 226 4.0 10.0 0.00 0.25 0.03 73 1012.2
20260507180832 52 28 4.0 10.0 0.00 0.25 0.03 75 1012.1
20260507180404 52 12 5.0 10.0 0.00 0.25 0.03 73 1012.0
20260507175858 52 248 4.0 10.0 0.00 0.25 0.03 73 1012.0
20260507174905 51 297 3.0 9.0 0.00 0.25 0.03 75 1012.1
20260507174343 51 352 5.0 9.0 0.00 0.25 0.03 72 1012.3
20260507173835 51 10 3.0 8.0 0.00 0.25 0.03 73 1012.4
20260507173327 51 302 4.0 10.0 0.00 0.25 0.03 71 1012.4
20260507172900 51 7 3.0 10.0 0.00 0.25 0.03 74 1012.3
20260507172352 51 250 3.0 10.0 0.00 0.25 0.03 76 1012.2
20260507171846 50 238 4.0 10.0 0.00 0.25 0.03 72 1012.3
20260507170328 50 28 4.0 11.0 0.00 0.25 0.03 73 1012.4
20260507165900 50 360 5.0 11.0 0.00 0.25 0.03 73 1012.5
20260507164332 50 305 3.0 7.0 0.00 0.27 0.03 74 1012.5
20260507163904 50 299 2.0 8.0 0.00 0.27 0.03 76 1012.5
20260507163357 50 353 2.0 6.0 0.00 0.27 0.03 76 1012.5
20260507162850 50 34 2.0 9.0 0.00 0.27 0.03 76 1012.4
20260507162443 50 1 5.0 10.0 0.00 0.27 0.03 75 1012.5
20260507161851 50 63 5.0 10.0 0.00 0.27 0.03 77 1012.6
20260507160852 49 56 3.0 8.0 0.00 0.27 0.03 78 1012.6
20260507160343 49 360 3.0 6.0 0.00 0.27 0.03 79 1012.7
20260507155835 48 311 2.0 6.0 0.00 0.27 0.03 83 1012.8
20260507155327 48 12 3.0 8.0 0.00 0.28 0.03 79 1012.7
20260507154900 48 26 5.0 13.0 0.00 0.28 0.03 81 1012.8
20260507154353 47 346 5.0 13.0 0.00 0.28 0.03 80 1012.8
20260507153829 47 24 4.0 10.0 0.00 0.28 0.03 80 1012.8
20260507153402 47 18 6.0 11.0 0.00 0.28 0.03 79 1012.9
20260507152856 47 47 7.0 11.0 0.00 0.28 0.03 78 1012.8
20260507152348 47 25 4.0 8.0 0.00 0.28 0.03 82 1012.7
20260507151314 47 360 5.0 9.0 0.00 0.28 0.03 81 1012.9
20260507150908 47 359 5.0 9.0 0.00 0.28 0.03 81 1012.9
20260507150358 47 354 4.0 7.0 0.00 0.28 0.03 81 1012.9
20260507145405 47 4 4.0 8.0 0.00 0.29 0.03 84 1012.9
20260507144843 47 19 3.0 8.0 0.00 0.29 0.03 84 1012.9
20260507144335 47 1 3.0 8.0 0.00 0.29 0.03 86 1012.9
20260507143828 47 359 4.0 8.0 0.00 0.29 0.03 87 1012.9
20260507143402 46 341 1.0 6.0 0.00 0.29 0.03 88 1012.9
20260507142855 46 2 2.0 10.0 0.00 0.29 0.03 88 1012.9
20260507142346 45 14 6.0 10.0 0.00 0.29 0.03 86 1013.0
20260507141326 45 48 3.0 10.0 0.00 0.29 0.03 89 1013.0
20260507140900 44 359 4.0 8.0 0.00 0.29 0.03 90 1013.2
20260507140351 45 22 3.0 6.0 0.00 0.29 0.03 92 1013.1
20260507135844 44 9 2.0 8.0 0.00 0.29 0.03 92 1013.1
20260507135338 44 327 5.0 7.0 0.00 0.30 0.03 93 1013.0
20260507134831 44 352 4.0 8.0 0.00 0.30 0.03 94 1013.1
20260507134325 44 345 3.0 8.0 0.00 0.30 0.03 95 1013.2
20260507132852 43 355 2.0 8.0 0.00 0.30 0.03 97 1013.3
20260507132344 43 20 4.0 9.0 0.00 0.30 0.03 97 1013.2
20260507131838 44 326 2.0 7.0 0.00 0.30 0.03 99 1013.3
20260507131330 43 11 1.0 6.0 0.00 0.30 0.03 98 1013.3
20260507130335 43 28 1.0 5.0 0.00 0.30 0.03 98 1013.4
20260507125828 43 1 2.0 6.0 0.00 0.30 0.03 99 1013.3
20260507124819 43 14 3.0 7.0 0.00 0.44 0.03 99 1013.4
20260507124352 43 40 2.0 4.0 0.00 0.44 0.03 99 1013.7
20260507123846 43 16 1.0 4.0 0.00 0.44 0.03 99 1013.9
20260507123338 43 250 1.0 5.0 0.00 0.44 0.03 99 1013.7
20260507122834 43 360 4.0 5.0 0.00 0.44 0.03 99 1013.5
20260507122404 43 342 0.0 5.0 0.00 0.44 0.03 99 1013.7
20260507121858 43 342 1.0 5.0 0.00 0.44 0.03 99 1013.6